Regional Weather Roundup
Issued by NWS

Home | Current Version | Previous Version | Graphics & Text | Print | Product List | Glossary On
Versions: 1 2 3 4 5 6 7 8 9 10 11 12 13 14 15 16 17 18 19 20 21 22 23 24 25 26 27 28 29 30 31 32 33 34 35 36 37 38 39 40 41 42 43 44 45 46 47 48 49 50
619
ASUS44 KJAN 221803
RWRMS

MISSISSIPPI HOURLY WEATHER ROUNDUP
NATIONAL WEATHER SERVICE JACKSON MS
100 PM CDT MON SEP 22 2014

NOTE: "FAIR: INDICATES FEW OR NO CLOUDS BELOW 12,000 FEET WITH NO
SIGNIFICANT WEATHER AND/OR OBSTRUCTIONS TO VISIBILITY.

MSZ001>002-007>008-010>013-018>021-025>028-034>036-221900-
NORTHWEST MISSISSIPPI

CITY           SKY/WX    TMP DP  RH WIND       PRES   REMARKS
CLARKSDALE     FAIR      77  54  44 NE15G21   30.20S
CLEVELAND      FAIR      79  52  38 NE16      30.17F
GREENWOOD      SUNNY     79  52  38 NE7G21    30.16F
6HR MIN TEMP:  59; 6HR MAX TEMP:  79;

GREENVILLE     SUNNY     81  49  32 N15G25    30.16F
6HR MIN TEMP:  63; 6HR MAX TEMP:  81;

GRENADA        FAIR      77  52  41 NE8G17    30.17F
OLIVE BRANCH   MOSUNNY   72  54  53 NE12      30.20F
OXFORD         FAIR      73  50  43 N10G18    30.20F
TUNICA         CLEAR     73  54  49 N10G17    30.21S
$$

MSZ003>006-009-014>017-022>024-029>033-037>039-221900-
NORTHEAST MISSISSIPPI

CITY           SKY/WX    TMP DP  RH WIND       PRES   REMARKS
COLUMBUS AFB   SUNNY     79  46  32 NW14      30.13F
6HR MIN TEMP:  62; 6HR MAX TEMP:  79;

CORINTH        FAIR      75  50  41 N13G20    30.19S
GOLDN TRIANGLE SUNNY     79  52  38 N9G18     30.14F
STARKVILLE     FAIR      79  48  34 N7G16     30.13F
TUPELO         SUNNY     75  51  43 NE14      30.17S
6HR MIN TEMP:  58; 6HR MAX TEMP:  75;

$$

MSZ040-058-221900-
CENTRAL MISSISSIPPI

CITY           SKY/WX    TMP DP  RH WIND       PRES   REMARKS
JACKSON INTL   SUNNY     82  51  34 N16G22    30.12S
6HR MIN TEMP:  72; 6HR MAX TEMP:  83;

JACKSON HAWKNS SUNNY     83  51  33 N10G17    30.12F
6HR MIN TEMP:  71; 6HR MAX TEMP:  83; 6HR PCP: TRACE;

MERIDIAN KEY   SUNNY     82  49  31 N16       30.09F
6HR MIN TEMP:  70; 6HR MAX TEMP:  83;

MERIDIAN NAS   MOSUNNY   82  49  31 N10G18    30.10F
6HR MIN TEMP:  69; 6HR MAX TEMP:  83;

RAYMOND        FAIR      81  75  83 N7G17     30.12F
VICKSBURG      SUNNY     84  51  31 NE15      30.12F
6HR MIN TEMP:  70; 6HR MAX TEMP:  84;

$$

MSZ059>079-221900-
SOUTH MISSISSIPPI

CITY           SKY/WX    TMP DP  RH WIND       PRES   REMARKS
BROOKHAVEN     FAIR      81  57  44 NE7       30.11F
COLUMBIA       FAIR      84  64  51 N7G13     30.06F
HATTIESBURG    CLOUDY    83  63  50 NE10      30.07S
6HR MIN TEMP:  68; 6HR MAX TEMP:  85;

MCCOMB         SUNNY     85  62  46 N15G21    30.08F
6HR MIN TEMP:  72; 6HR MAX TEMP:  85;

NATCHEZ        SUNNY     81  63  54 NE10G16   30.11F
6HR MIN TEMP:  70; 6HR MAX TEMP:  81;

PINE BELT      SUNNY    N/A N/A N/A NE7       30.09F
$$

MSZ080>082-221900-
COASTAL MISSISSIPPI

CITY           SKY/WX    TMP DP  RH WIND       PRES   REMARKS
BILOXI         MOSUNNY   89  69  52 S8        30.01F HX  94
6HR MIN TEMP:  72; 6HR MAX TEMP:  90;

PASCAGOULA     SUNNY     89  68  49 N7        30.01F HX  93
6HR MIN TEMP:  64; 6HR MAX TEMP:  89;

GULFPORT       MOSUNNY   89  67  47 NW5       30.00F HX  92
6HR MIN TEMP:  67; 6HR MAX TEMP:  91;

$$



USA.gov is the U.S. government's official web portal to all federal, state and local government web resources and services.